www.pogodaiklimat.ru

Погода и климат >> Архив погоды >> Россия >> Нижегородская область >> Арзамас


ПОГОДА в Арзамасе

АРХИВ ПОГОДЫ в Арзамасе

Время (UTC), дата Ветер
(напр.,м/с)
 
Видим.   Явления Облачность Т
(С)
Тd
(С)
f
(%)
Тe
(С)
Тes
(С)
Комфортность P
(гПа)
Po
(гПа)
Тmin
(С)
Tmax
(С)
R
(мм)
R24
(мм)
S
(см)
00 10.07 З 3-4
{5}
4000 м 10/0
[Ac und]
+15.5 +14.8 96 +15 +15 по сезону 1008.6 994.1
03 10.07 З 2-4
{5}
20 км 10/0
[Ac und]
+16.1 +15.1 94 +16 +17 по сезону 1009.6 995.1 +15.5
06 10.07 З 4-6
{8}
20 км 10/0
[As trans]
+17.1 +14.7 86 +17 +19 по сезону 1010.7 996.2
09 10.07 З 4-6
{7}
20 км 10/10 300 м
[Sc]
+20.5 +16.7 79 +24 +24 комфорт 1011.4 997.0
12 10.07 З 4-6
{8}
20 км 8/5 600 м
[Cu med, cong Ac trans]
+23.1 +16.0 64 +28 +30 душно 1011.2 997.0
15 10.07 З 5-8
{10}
20 км 8/5 300 м
[Cu med, cong Ac trans]
+22.3 +16.4 69 +27 +27 душно 1011.4 997.1 +23.7
18 10.07 ЮЗ 1-2
{8}
20 км {ливн. осадки} 4/0
[Ci fib]
+17.0 +15.9 93 +18 +18 по сезону 1012.5 998.0
21 10.07 ЮЗ 1-2
{3}
4000 м дымка 8/8 300 м
[St]
+15.6 +15.1 97 +16 +16 по сезону 1012.6 998.0
00 11.07 З 1-2
{3}
4000 м 10/0
[As trans]
+17.2 +16.7 97 +18 +18 тепло 1012.8 998.3
03 11.07 З 2-3
{4}
1000 м дымка 10/10 300 м
[St]
+17.7 +17.4 98 +18 +18 тепло 1012.8 998.3 +14.4 0.0
06 11.07 З 2-4
{5}
20 км в посл. час морось 10/10 300 м
[St]
+19.6 +18.0 90 +23 +23 комфорт 1013.1 998.7
09 11.07 В 2-3
{6}
20 км ливневой дождь 10/0
[As op]
+17.7 +17.2 97 +18 +21 прохладно 1013.7 999.2
12 11.07 СВ 3-6
{6}
20 км слабый дождь {ливн. осадки} 10/0
[As op]
+19.3 +17.7 90 +22 +23 комфорт 1013.5 999.1
15 11.07 СВ 3-4
{7}
20 км {дождь} 8/6 300 м
[Sc Cc]
+21.7 +14.4 63 +25 +25 комфорт 1013.3 999.0 +23.2 49
18 11.07 С 1-1
{4}
20 км {дождь} 9/9 300 м
[Sc]
+19.0 +15.8 82 +21 +21 комфорт 1013.7 999.3
21 11.07 штиль 0
{2}
4000 м местами туман поземный 8/8 300 м
[Sc]
+16.5 +15.7 95 +16 +16 по сезону 1013.8 999.2
00 12.07 штиль 0
{1}
500 м туман 4/0
[Ac As]
+13.6 +13.2 97 +13 +13 по сезону 1013.7 999.0
03 12.07 СЗ 2-3
{3}
20 км {туман} 1/0
[Ac cuf]
+16.7 +15.5 93 +17 +19 по сезону 1014.2 999.3 +13.1
06 12.07 С 3-4
{5}
20 км {туман} ясно +21.3 +15.1 68 +24 +33 комфорт 1013.5 999.2
09 12.07 СЗ 2-4
{6}
20 км 8/8 300 м
[Sc]
+23.3 +12.9 52 +26 +29 жарко 1012.9 998.6
12 12.07 СЗ 2-4
{6}
20 км 8/8 300 м
[Sc]
+24.3 +11.7 45 +26 +28 жарко 1012.0 997.8
15 12.07 СЗ 2-3
{7}
20 км 4/4 300 м
[Sc]
+23.5 +13.5 53 +26 +27 жарко 1011.8 997.4 +25.2
18 12.07 СЗ 1-1
{4}
20 км 1/0
[Ac trans]
+17.9 +14.6 81 +19 +19 по сезону 1011.7 997.3
21 12.07 штиль 0
{2}
4000 м 1/0
[Ac trans]
+13.9 +13.3 96 +13 +13 прохладно 1012.0 997.3
00 13.07 З 1-1
{1}
4000 м местами туман поземный ясно +12.6 +12.2 97 +12 +12 прохладно 1011.7 996.9
03 13.07 штиль 0
{2}
20 км ясно +15.1 +14.6 97 +15 +17 по сезону 1011.8 997.1 +11.9
06 13.07 С 1-3
{4}
20 км 6/6 300 м
[Sc]
+21.2 +16.0 72 +25 +29 комфорт 1011.1 996.8
09 13.07 С 1-3
{6}
20 км 8/6 300 м
[Cu med, cong Ac trans]
+24.1 +16.1 61 +27 +32 жарко 1010.3 996.1
12 13.07 СЗ 2-5
{6}
20 км 9/6 300 м
[Sc diur, vesp Ac trans]
+24.4 +15.9 59 +28 +30 душно 1010.2 996.0
15 13.07 С 2-3
{6}
20 км 8/0
[Ac trans]
+24.5 +15.4 57 +27 +29 жарко 1009.6 995.4 +25.3
18 13.07 штиль 0
{4}
20 км 3/0
[Ac trans]
+20.2 +17.4 84 +23 +23 комфорт 1010.2 995.8
21 13.07 штиль 0
{2}
4000 м дымка ясно +15.7 +14.9 95 +15 +15 прохладно 1010.2 995.7
00 14.07 штиль 0
{2}
4000 м дымка ясно +13.6 +13.0 96 +13 +13 по сезону 1010.3 995.6
03 14.07 штиль 0
{2}
4000 м в посл. час туман ясно +16.4 +15.4 94 +16 +19 по сезону 1010.2 995.7 +11.8
06 14.07 ЮЗ 1-1
{2}
20 км {туман} 3/3 300 м
[Cu hum]
+23.3 +17.4 69 +29 +37 душно 1009.6 995.4
09 14.07 З 1-1
{2}
20 км 4/4 300 м
[Cu med, cong]
+25.5 +15.2 53 +28 +39 жарко 1009.2 995.1
12 14.07 В 2-4
{4}
20 км 8/8 300 м
[Cu med, cong]
+26.0 +15.3 52 +29 +31 душно 1008.5 994.4
15 14.07 В 2-4
{4}
20 км 3/3 300 м
[Cu med, cong Cc]
+26.6 +15.7 51 +30 +31 душно 1007.6 993.5 +28.1
18 14.07 СВ 2-2
{3}
20 км 3/1 300 м
[Sc diur, vesp Ci fib]
+21.5 +16.4 73 +25 +25 комфорт 1008.6 994.3
21 14.07 В 2-3
{3}
4000 м ясно +18.0 +15.9 88 +19 +19 тепло 1009.0 994.6
00 15.07 СВ 1-2
{3}
4000 м местами туман поземный ясно +15.2 +14.7 97 +16 +16 по сезону 1009.1 994.6
03 15.07 В 1-2
{3}
20 км 3/0
[Ci sp]
+18.7 +15.1 80 +21 +23 комфорт 1009.6 995.2 +14.2
06 15.07 СВ 1-3
{3}
20 км 6/0
[Ci]
+25.9 +16.7 57 +30 +40 душно 1009.6 995.5
09 15.07 В 2-4
{5}
20 км 8/3 600 м
[Cu med, cong Ci fib]
+27.3 +15.9 50 +31 +40 душно 1009.1 995.1
12 15.07 СВ 1-3
{6}
20 км 4/4 600 м
[Cu med, cong]
+28.8 +15.5 44 +32 +39 душно 1008.5 994.5
15 15.07 В 2-3
{5}
20 км 4/3 600 м
[Cu med, cong Ci fib]
+28.1 +16.2 48 +31 +33 душно 1008.2 994.2 +29.0
18 15.07 В 1-2
{4}
20 км 6/0
[Ci]
+23.4 +18.1 72 +29 +29 душно 1009.0 994.8
21 15.07 В 1-2
{3}
4000 м ясно +19.7 +17.3 86 +23 +23 комфорт 1009.3 994.9
00 16.07 В 2-2
{3}
4000 м ясно +18.1 +16.4 90 +19 +19 тепло 1009.5 995.1
03 16.07 В 2-3
{4}
20 км ясно +20.6 +17.8 84 +25 +27 комфорт 1009.8 995.4 +17.9
06 16.07 СВ 3-4
{5}
20 км ясно +26.2 +19.0 65 +31 +40 очень
душно
1009.1 995.0
09 16.07 В 3-5
{7}
20 км 8/0
[Ac trans]
+28.6 +16.0 46 +32 +38 душно 1008.7 994.7
12 16.07 В 3-5
{7}
20 км 3/3 300 м
[Cu med, cong]
+29.5 +15.1 42 +32 +38 душно 1007.9 994.0
15 16.07 СВ 3-5
{7}
20 км 1/1 300 м
[Sc diur, vesp]
+29.1 +15.7 44 +32 +34 душно 1007.0 993.1 +29.7
18 16.07 В 1-2
{6}
20 км 3/3 300 м
[Sc diur, vesp]
+24.8 +18.0 66 +29 +29 душно 1008.1 994.0
21 16.07 СВ 2-3
{5}
20 км ясно +21.5 +18.1 81 +26 +26 душно 1007.5 993.2

 

Местоположение метеостанции Арзамас (Нижегородская область, Россия): широта 55.37 долгота 43.78 высота над уровнем моря 124 м.

В архиве по умолчанию представлена погода в Арзамасе за последнюю неделю. Архивные данные за месяц целиком и за предыдущие месяцы, начиная с января 2011 года, Вы можете получить, выбрав интересующий диапазон дат из раскрывающегося списка и нажав кнопку "Ввод!".


*Определитесь, кто Вы:
робот инопланетянин человек

Внимание! Время в таблицах - всемирное. Для получения местного времени необходимо прибавить поправку, которая в Арзамасе равна 3 ч.

Смотрите также архив погоды в соседних городах и на ближайших метеорологических станциях:

Погода в Дальнем Константиново (Нижегородская область, Россия) (51 км)
Погода в Лукоянове (Нижегородская область, Россия) (59 км)
Погода в Павлово (Нижегородская область, Россия) (80 км)
Погода в Темникове (Мордовия, Россия) (89 км)
Погода в Нижнем Новгороде аэропорт (Нижегородская область, Россия) (95 км)
Погода в Нижнем Новгороде (Нижегородская область, Россия) (101 км)
Погода в Краснослободске (Мордовия, Россия) (105 км)
Погода в Выксе (Нижегородская область, Россия) (105 км)
Погода в Большом Болдино (Нижегородская область, Россия) (105 км)
Погода в Лысково (Нижегородская область, Россия) (106 км)

Пояснения к столбцам:

Ветер - указаны скорость ветра в м/с - средняя за 10 мин, порывы в срок и между сроками (в фигурных скобках) и направление, откуда дует ветер: С - северный, СВ - северо-восточный, В - восточный, ЮВ - юго-восточный, Ю - южный, ЮЗ - юго-западный, З - западный, СЗ - северо-западный.
Видимость - горизонтальная дальность видимости в метрах или километрах. При видимости от 1 до 10 км при отсутствии осадков обычно наблюдается дымка, при ухудшении видимости до 1 км и менее - туман. В сухую погоду видимость может ухудшаться дымом, пылью или мглою.
Явления - указаны атмосферные явления, наблюдавшиеся в срок или в последний час перед сроком; фигурными скобками обозначены явления, наблюдавшиеся между сроками (за 1-3 часа до срока); квадратными скобками обозначены град или гололедные отложения с указанием их диаметра в мм.
Облачность - указаны через наклонную черту общая и нижняя облачность в баллах и высота нижней границы облаков в метрах; квадратными скобками обозначены формы облаков: Ci - перистые, Cs - перисто-слоистые, Cc - перисто-кучевые, Ac - высококучевые, As - высокослоистые, Sc - слоисто-кучевые, Ns - слоисто-дождевые, Cu - кучевые, Cb - кучево-дождевые. Подробнее классификацию облаков см. в Атласе облаков (PDF).
T - Температура воздуха - температура, измеренная на высоте 2 м над землей.
Td - Температура точки росы - температура, при понижении до которой содержащийся в воздухе водяной пар достигнет насыщения.
f - Относительная влажность воздуха - влажноcть воздуха, измеренная на высоте 2 м над землей.
Te - Эффективная температура - температура, которую ощущает одетый по сезону человек в тени. Характеристика душности погоды. При расчете учитывается влияние влажности воздуха и скорости ветра на теплоощущения человека.
Tes - Эффективная температура на солнце - температура, которую ощущает человек, с поправкой на солнечный нагрев. Характеристика знойности погоды. Зависит от высоты солнца над горизонтом, облачности и скорости ветра. Ночью, в пасмурную погоду, а также при ветре 12 м/с и более поправка равна нулю.
P - Атмосферное давление - приведенное к уровню моря атмосферное давление.
Po - Атмосферное давление - измеренное на уровне метеостанции атмосферное давление.
Tmin - Минимальная температура - минимум температуры воздуха на высоте 2 м над землей.
Tmax - Максимальная температура - максимум температуры воздуха на высоте 2 м над землей.
R - Количество осадков - Количество выпавших осадков за период времени, мм. При наведении курсора мыши на число - период времени, за который выпало указанное количество осадков.
R24 - Количество осадков - Количество выпавших осадков за 24 часа, мм.
S - Снежный покров - Высота снежного покрова, см. При наведении курсора мыши на число - состояние снежного покрова и степень покрытия местности в баллах.